map of TMS home
Great Circle Mapper logo
TMS - Airport
Location
City:  São Tomé, São Tomé, São Tomé and Príncipe
Name:São Tomé International Airport
Old (Alt.):Salazar Airport
ICAO / IATA:FPST / TMS

Details
Type:Airport (Aerodrome, Airfield)
Use:Public/Civil, International (customs port of entry)
Latitude:0°22'41"N (0.378175)
Longitude:6°42'44"E (6.712153)
Datum:WGS 1984
Elevation:33 ft (10 m)
Runways:1
Longest:7283 × 148 ft (2220 × 45 m), paved

Time
Time Zone:UTC+0
Local Time:

Weather
METAR:FPST 311700Z 31006KT 9999 FEW020CB BKN040 24/22 Q1011 NOSIG
TAF:FPST 311600Z 3118/0124 29008KT 9999 FEW017CB BKN033 PROB 30
TEMPO 0102/0106 5000 TSRA SCT010 FEW0105CB BKN027 OVC090

Related Locations
Nearby:
Farthest:CIS: 12238 mi / 19696 km
Canton Island, KI

Find:

   beyond  
but within

Other Information
Maps:
NOTAMs:
Links:
Sources:

  
flag of São Tomé and Príncipe   

Sectional Chart

Flight Planning
at skyvector.com

Satellite Image

Google Maps Satellite View

 

Copyright © 2004-2014 Karl L. Swartz. All rights reserved.
The Great Circle Mapper name and logo are trademarks of the Great Circle Mapper.
All other trademarks mentioned herein belong to their respective owners.
Please see credits for attibutions and further copyright information.

  Follow gcmap on Facebook Follow gcmap on Twitter

hCard Microformat

Geo Microformat